Duluth Sky Harbor, MN

1:07 AM CDT on April 23, 2017 (GMT -0500)
Sky Harbor

Weather History for KDYT - April, 2013

Change the Weather History Date:

Sunday, April 14, 2013

  Actual Average Record
Temperature  
Mean Temperature 26 °F -  
Max Temperature 33 °F 44 °F 75 °F (2003)
Min Temperature 19 °F 30 °F 5 °F (1986)
Degree Days  
Heating Degree Days 39    
Moisture  
Dew Point 26 °F    
Average Humidity 87    
Maximum Humidity 93    
Minimum Humidity 81    
Precipitation  
Precipitation 0.00 in - - ()
Sea Level Pressure  
Sea Level Pressure 29.87 in    
Wind  
Wind Speed 9 mph (NE)    
Max Wind Speed 33 mph    
Max Gust Speed 41 mph    
Visibility 8 miles    
Events      
Averages and records for this station are not official NWS values.
T = Trace of Precipitation, MM = Missing Value Source: NWS Daily Summary

Daily Weather History Graph

Daily Weather History Graph

Search for Another Location

Airport or City:

Trip Planner

Search our weather history database for the weather conditions in past years. The results will help you decide how hot, cold, wet, or windy it might be!

Date:

Astronomy

Apr. 14, 2013 Rise Set
Actual Time 6:22 AM CDT 7:55 PM CDT
Civil Twilight 5:50 AM CDT 8:27 PM CDT
Nautical Twilight 5:12 AM CDT 9:05 PM CDT
Astronomical Twilight 4:30 AM CDT 9:47 PM CDT
Moon 8:48 AM CDT (4/14) No Moon Set
Length of Visible Light 14h 36m
Length of Day
13h 33m
Waxing Crescent, 17% of the Moon is Illuminated
Apr 14
Waxing Crescent
Apr 18
First Quarter
Apr 25
Full
May 2
Last Quarter
May 9
New

Hourly Weather History & Observations

Time (CDT) Temp. Windchill Dew Point Humidity Pressure Visibility Wind Dir Wind Speed Gust Speed Precip Events Conditions
12:13 AM 28.4 °F - 24.8 °F 86% 29.99 in 10.0 mi Calm Calm - N/A   Clear
12:33 AM 26.6 °F - 24.8 °F 93% 29.99 in 10.0 mi Calm Calm - N/A   Clear
12:53 AM 24.8 °F - 21.2 °F 86% 30.00 in 10.0 mi Calm Calm - N/A   Clear
1:13 AM 26.6 °F - 23.0 °F 86% 30.00 in 10.0 mi Calm Calm - N/A   Clear
1:33 AM 24.8 °F - 21.2 °F 86% 30.00 in 10.0 mi Calm Calm - N/A   Clear
1:54 AM 26.6 °F - 23.0 °F 86% 30.00 in 10.0 mi Calm Calm - N/A   Clear
2:13 AM 26.6 °F - 23.0 °F 86% 29.99 in 10.0 mi Calm Calm - N/A   Clear
2:33 AM 24.8 °F - 21.2 °F 86% 29.99 in 10.0 mi Calm Calm - N/A   Clear
2:54 AM 24.8 °F - 21.2 °F 86% 29.98 in 10.0 mi Calm Calm - N/A   Clear
3:13 AM 24.8 °F - 21.2 °F 86% 29.98 in 10.0 mi Calm Calm - N/A   Clear
3:33 AM 23.0 °F - 19.4 °F 86% 29.97 in 10.0 mi Calm Calm - N/A   Clear
3:54 AM 23.0 °F - 21.2 °F 93% 29.96 in 10.0 mi Calm Calm - N/A   Clear
4:13 AM 23.0 °F - 21.2 °F 93% 29.97 in 10.0 mi Calm Calm - N/A   Clear
4:33 AM 23.0 °F - 21.2 °F 93% 29.96 in 10.0 mi Calm Calm - N/A   Clear
4:54 AM 21.2 °F - 17.6 °F 86% 29.95 in 10.0 mi Calm Calm - N/A   Clear
5:13 AM 19.4 °F - 17.6 °F 93% 29.96 in 10.0 mi Calm Calm - N/A   Clear
5:33 AM 19.4 °F 14.3 °F 17.6 °F 93% 29.97 in 10.0 mi South 3.5 mph - N/A   Clear
5:54 AM 21.2 °F 16.4 °F 19.4 °F 93% 30.00 in 10.0 mi SSW 3.5 mph - N/A   Clear
6:13 AM 19.4 °F - 17.6 °F 93% 29.99 in 10.0 mi Calm Calm - N/A   Clear
6:33 AM 19.4 °F - 17.6 °F 93% 29.99 in 10.0 mi Calm Calm - N/A   Clear
6:54 AM 21.2 °F - 17.6 °F 86% 30.00 in 10.0 mi Calm Calm - N/A   Clear
7:13 AM 21.2 °F - 19.4 °F 93% 29.98 in 10.0 mi Calm Calm - N/A   Clear
7:33 AM 23.0 °F - 19.4 °F 86% 29.98 in 10.0 mi Calm Calm - N/A   Clear
7:54 AM 24.8 °F - 21.2 °F 86% 29.98 in 10.0 mi Calm Calm - N/A   Clear
8:13 AM 24.8 °F - 21.2 °F 86% 29.98 in 10.0 mi Calm Calm - N/A   Clear
8:33 AM 26.6 °F - 23.0 °F 86% 29.98 in 10.0 mi Calm Calm - N/A   Clear
8:54 AM 28.4 °F - 24.8 °F 86% 29.97 in 10.0 mi Calm Calm - N/A   Clear
9:13 AM 28.4 °F - 24.8 °F 86% 29.97 in 10.0 mi Calm Calm - N/A   Clear
9:33 AM 30.2 °F 24.3 °F 26.6 °F 86% 29.96 in 10.0 mi ENE 5.8 mph - N/A   Clear
9:54 AM 30.2 °F 22.6 °F 28.4 °F 93% 29.94 in 10.0 mi NE 8.1 mph - N/A   Clear
10:13 AM 32.0 °F 22.5 °F 28.4 °F 87% 29.93 in 10.0 mi NE 12.7 mph - N/A   Clear
10:33 AM 32.0 °F 22.5 °F 28.4 °F 87% 29.92 in 10.0 mi NE 12.7 mph - N/A   Clear
10:54 AM 32.0 °F 22.1 °F 28.4 °F 87% 29.92 in 10.0 mi NE 13.8 mph - N/A   Clear
11:13 AM 33.8 °F 23.5 °F 28.4 °F 81% 29.91 in 10.0 mi NE 16.1 mph - N/A   Clear
11:34 AM 33.8 °F 23.9 °F 30.2 °F 87% 29.91 in 10.0 mi NE 15.0 mph - N/A   Clear
11:53 AM 33.8 °F 23.9 °F 30.2 °F 87% 29.90 in 10.0 mi NE 15.0 mph - N/A   Clear
12:13 PM 33.8 °F 22.5 °F 30.2 °F 87% 29.88 in 10.0 mi NE 19.6 mph 23.0 mph N/A   Clear
12:34 PM 33.8 °F 22.5 °F 30.2 °F 87% 29.88 in 10.0 mi NE 19.6 mph 24.2 mph N/A   Clear
12:53 PM 33.8 °F 22.2 °F 30.2 °F 87% 29.88 in 10.0 mi NE 20.7 mph 25.3 mph N/A   Scattered Clouds
1:13 PM 33.8 °F 22.5 °F 30.2 °F 87% 29.87 in 10.0 mi NE 19.6 mph 24.2 mph N/A   Mostly Cloudy
1:34 PM 33.8 °F 22.5 °F 30.2 °F 87% 29.88 in 10.0 mi NE 19.6 mph - N/A   Mostly Cloudy
1:53 PM 33.8 °F 22.5 °F 30.2 °F 87% 29.87 in 10.0 mi NE 19.6 mph 26.5 mph N/A   Overcast
2:13 PM 33.8 °F 22.2 °F 30.2 °F 87% 29.86 in 10.0 mi NE 20.7 mph 26.5 mph N/A   Mostly Cloudy
2:34 PM 33.8 °F 21.9 °F 30.2 °F 87% 29.85 in 10.0 mi NE 21.9 mph - N/A   Scattered Clouds
3:14 PM 33.8 °F 21.6 °F 30.2 °F 87% 29.82 in 10.0 mi NE 23.0 mph 29.9 mph N/A   Overcast
3:33 PM 33.8 °F 21.3 °F 30.2 °F 87% 29.81 in 10.0 mi NE 24.2 mph 29.9 mph N/A   Overcast
3:53 PM 33.8 °F 21.3 °F 28.4 °F 81% 29.80 in 10.0 mi NE 24.2 mph 31.1 mph N/A   Overcast
4:14 PM 33.8 °F 20.8 °F 28.4 °F 81% 29.79 in 10.0 mi NE 26.5 mph 33.4 mph N/A   Overcast
4:33 PM 33.8 °F 20.3 °F 30.2 °F 87% 29.78 in 5.0 mi ENE 28.8 mph 34.5 mph N/A   Overcast
4:53 PM 33.8 °F 20.8 °F 30.2 °F 87% 29.78 in 10.0 mi ENE 26.5 mph 35.7 mph N/A   Overcast
5:14 PM 33.8 °F 20.5 °F 30.2 °F 87% 29.77 in 0.8 mi ENE 27.6 mph 36.8 mph N/A   Overcast
5:33 PM 33.8 °F 19.6 °F 30.2 °F 87% 29.76 in 0.8 mi ENE 32.2 mph 40.3 mph N/A   Overcast
5:54 PM 33.8 °F 20.3 °F 30.2 °F 87% 29.75 in 0.2 mi ENE 28.8 mph 41.4 mph N/A   Overcast
6:13 PM 33.8 °F 19.4 °F 30.2 °F 87% 29.75 in 0.2 mi ENE 33.4 mph 40.3 mph N/A   Overcast
6:33 PM 33.8 °F 20.5 °F 30.2 °F 87% 29.77 in 1.5 mi ENE 27.6 mph 34.5 mph N/A   Overcast
6:54 PM 33.8 °F 20.3 °F 30.2 °F 87% 29.75 in 4.0 mi ENE 28.8 mph 35.7 mph N/A   Overcast
7:13 PM 33.8 °F 20.3 °F 30.2 °F 87% 29.73 in 3.0 mi ENE 28.8 mph 39.1 mph N/A   Overcast
7:33 PM 33.8 °F 19.9 °F 30.2 °F 87% 29.72 in 1.2 mi ENE 31.1 mph 36.8 mph N/A   Overcast
7:53 PM 33.8 °F 20.3 °F 30.2 °F 87% 29.72 in 0.5 mi NE 28.8 mph 38.0 mph N/A   Overcast
8:13 PM 33.8 °F 20.3 °F 30.2 °F 87% 29.71 in 1.0 mi NE 28.8 mph 36.8 mph N/A   Overcast
8:34 PM 33.8 °F 21.3 °F 30.2 °F 87% 29.71 in 1.2 mi NE 24.2 mph 33.4 mph N/A   Overcast
8:53 PM 33.8 °F 20.8 °F 30.2 °F 87% 29.70 in 2.5 mi ENE 26.5 mph 34.5 mph N/A   Overcast
9:14 PM 33.8 °F 20.8 °F 30.2 °F 87% 29.70 in 2.0 mi NE 26.5 mph 34.5 mph N/A   Overcast
9:33 PM 33.8 °F 20.8 °F 30.2 °F 87% 29.69 in 2.0 mi NE 26.5 mph 32.2 mph N/A   Overcast
9:53 PM 33.8 °F 20.8 °F 30.2 °F 87% 29.69 in 1.0 mi ENE 26.5 mph 34.5 mph N/A   Overcast
10:14 PM 33.8 °F 21.0 °F 30.2 °F 87% 29.68 in 1.5 mi ENE 25.3 mph 34.5 mph N/A   Overcast
10:33 PM 33.8 °F 20.5 °F 30.2 °F 87% 29.68 in 1.8 mi ENE 27.6 mph 36.8 mph N/A   Overcast
10:53 PM 33.8 °F 20.8 °F 30.2 °F 87% 29.66 in 1.5 mi ENE 26.5 mph 34.5 mph N/A   Overcast
11:13 PM 33.8 °F 20.8 °F 30.2 °F 87% 29.67 in 7.0 mi ENE 26.5 mph 35.7 mph N/A   Overcast
11:34 PM 33.8 °F 20.5 °F 30.2 °F 87% 29.65 in 10.0 mi ENE 27.6 mph 34.5 mph N/A   Overcast
11:54 PM 33.8 °F 21.0 °F 30.2 °F 87% 29.64 in 7.0 mi ENE 25.3 mph 35.7 mph N/A   Overcast